Date String (YYYY-MM-DD hh:mm:ss) UTC,Instrument flags,Ambient pressure (hPa),Sample flow (lpm),Bypass flow (lpm),Sample temperature (°C),Ambient temperature (°C),ASC tube jacket temperature (°C),LED temperature (°C),Box temperature (°C),Sample RH (%),Span deviation,Mass concentration (μg/m³),Mass concentration (μg/m³),Mass concentration (μg/m³)
DateTimeUTC,F1_M11,P_M11,Q1_M11,Q2_M11,T1_M11,T2_M11,T3_M11,T4_M11,T5_M11,U1_M11,ZSPAN_M11,X0_M11,X2_M11,X1_M11
2022-09-01 08:00:00,,0830.1,5.00,0.00,30.2,27.3,00.0,39.0,31.8,18.4,0000.0,0012.41,0005.31,0004.42
2022-09-01 08:01:00,,0830.1,5.00,0.00,30.2,27.6,00.0,39.0,31.8,18.5,0000.0,0012.22,0005.34,0004.42
2022-09-01 08:02:00,,0830.1,4.98,0.00,30.1,27.9,00.0,39.0,31.7,18.5,0000.0,0012.93,0005.40,0004.42
2022-09-01 08:03:00,,0830.1,5.01,0.00,30.1,28.1,00.0,39.0,31.8,18.5,0000.0,0013.91,0005.42,0004.42
2022-09-01 08:04:00,,0830.1,5.00,0.00,30.1,28.3,00.0,38.9,31.8,18.5,0000.0,0014.42,0005.39,0004.40
2022-09-01 08:05:00,,0830.1,5.00,0.00,30.1,28.4,00.0,38.9,31.8,18.5,0000.0,0013.86,0005.34,0004.40
2022-09-01 08:06:00,,0830.1,5.00,0.00,30.1,28.5,00.0,38.9,31.8,18.5,0000.0,0013.97,0005.33,0004.40
2022-09-01 08:07:00,,0830.1,5.00,0.00,30.1,28.6,00.0,38.9,31.9,18.5,0000.0,0014.11,0005.30,0004.40
2022-09-01 08:08:00,,0830.1,5.00,0.00,30.1,28.7,00.0,38.9,31.9,18.5,0000.0,0014.59,0005.33,0004.40
2022-09-01 08:09:00,,0830.1,5.00,0.00,30.1,28.8,00.0,38.9,31.9,18.5,0000.0,0013.79,0005.34,0004.40
2022-09-01 08:10:00,,0830.1,4.98,0.00,30.1,28.8,00.0,38.9,31.9,18.5,0000.0,0013.92,0005.38,0004.40
2022-09-01 08:11:00,,0830.1,5.01,0.00,30.1,28.9,00.0,38.9,32.0,18.5,0000.0,0013.72,0005.39,0004.41
2022-09-01 08:12:00,,0830.1,5.00,0.00,30.1,28.9,00.0,38.9,32.0,18.5,0000.0,0014.15,0005.38,0004.42
2022-09-01 08:13:00,,0830.1,5.00,0.00,30.2,28.9,00.0,38.9,32.0,18.5,0000.0,0014.38,0005.32,0004.43
2022-09-01 08:14:00,,0830.1,5.00,0.00,30.2,29.0,00.0,39.0,32.0,18.5,0000.0,0014.03,0005.34,0004.44
2022-09-01 08:15:00,,0830.1,4.99,0.00,30.2,29.0,00.0,39.0,32.0,18.5,0000.0,0013.84,0005.38,0004.46
2022-09-01 08:16:00,,0830.1,5.00,0.00,30.2,29.1,00.0,39.0,32.0,18.5,0000.0,0013.78,0005.40,0004.47
2022-09-01 08:17:00,,0830.1,5.00,0.00,30.2,29.1,00.0,39.0,32.1,18.4,0000.0,0014.33,0005.40,0004.48
2022-09-01 08:18:00,,0830.1,5.00,0.00,30.3,29.1,00.0,39.0,32.1,18.5,0000.0,0014.36,0005.43,0004.49
2022-09-01 08:19:00,,0830.1,4.99,0.00,30.3,29.1,00.0,39.0,32.1,18.7,0000.0,0015.05,0005.45,0004.49
2022-09-01 08:20:00,,0830.0,5.00,0.00,30.3,29.2,00.0,39.0,32.1,18.9,0000.0,0015.28,0005.46,0004.48
2022-09-01 08:21:00,,0830.0,5.00,0.00,30.3,29.2,00.0,39.1,32.1,19.0,0000.0,0015.19,0005.44,0004.49
2022-09-01 08:22:00,,0830.1,5.01,0.00,30.3,29.2,00.0,39.1,32.1,18.9,0000.0,0015.15,0005.41,0004.50
2022-09-01 08:23:00,,0830.1,5.01,0.00,30.4,29.2,00.0,39.1,32.2,18.8,0000.0,0015.27,0005.45,0004.52
2022-09-01 08:24:00,,0830.0,5.01,0.00,30.4,29.3,00.0,39.1,32.2,18.7,0000.0,0014.63,0005.47,0004.52
2022-09-01 08:25:00,,0830.0,4.98,0.00,30.4,29.3,00.0,39.1,32.2,18.6,0000.0,0014.05,0005.50,0004.53
2022-09-01 08:26:00,,0830.0,5.00,0.00,30.4,29.3,00.0,39.1,32.2,18.5,0000.0,0013.73,0005.54,0004.54
2022-09-01 08:27:00,,0829.9,5.00,0.00,30.4,29.3,00.0,39.1,32.2,18.4,0000.0,0013.79,0005.55,0004.54
2022-09-01 08:28:00,,0829.9,5.00,0.00,30.4,29.3,00.0,39.2,32.3,18.4,0000.0,0014.21,0005.55,0004.54
2022-09-01 08:29:00,,0829.9,5.00,0.00,30.5,29.3,00.0,39.2,32.3,18.3,0000.0,0014.21,0005.52,0004.55
2022-09-01 08:30:00,,0829.9,4.99,0.00,30.5,29.4,00.0,39.2,32.3,18.3,0000.0,0013.32,0005.47,0004.55
2022-09-01 08:31:00,,0830.0,5.00,0.00,30.5,29.1,00.0,39.2,32.3,18.3,0000.0,0013.21,0005.49,0004.56
2022-09-01 08:32:00,,0829.8,5.01,0.00,30.4,27.7,00.0,39.2,32.1,18.3,0000.0,0013.46,0005.55,0004.55
2022-09-01 08:33:00,,0829.9,5.01,0.00,30.4,27.0,00.0,39.1,32.0,18.4,0000.0,0014.27,0005.56,0004.54
2022-09-01 08:34:00,,0829.9,4.99,0.00,30.3,27.1,00.0,39.1,31.9,18.4,0000.0,0014.52,0005.54,0004.53
2022-09-01 08:35:00,,0829.9,5.00,0.00,30.2,27.4,00.0,39.0,31.8,18.5,0000.0,0014.55,0005.57,0004.53
2022-09-01 08:36:00,,0829.8,5.00,0.00,30.2,27.7,00.0,39.0,31.8,18.5,0000.0,0015.01,0005.57,0004.51
2022-09-01 08:37:00,,0829.9,5.01,0.00,30.1,27.9,00.0,39.0,31.8,18.6,0000.0,0015.21,0005.48,0004.49
2022-09-01 08:38:00,,0829.8,4.99,0.00,30.1,28.1,00.0,39.0,31.8,18.6,0000.0,0015.67,0005.45,0004.49
2022-09-01 08:39:00,,0829.9,4.99,0.00,30.1,28.3,00.0,39.0,31.8,18.6,0000.0,0014.46,0005.44,0004.50
2022-09-01 08:40:00,,0829.9,5.01,0.00,30.1,28.4,00.0,38.9,31.8,18.7,0000.0,0014.05,0005.46,0004.51
2022-09-01 08:41:00,,0829.9,5.00,0.00,30.1,28.5,00.0,38.9,31.9,18.7,0000.0,0013.58,0005.47,0004.51
2022-09-01 08:42:00,,0829.9,5.00,0.00,30.1,28.6,00.0,38.9,31.9,18.7,0000.0,0013.42,0005.44,0004.51
2022-09-01 08:43:00,,0829.9,5.00,0.00,30.1,28.7,00.0,38.9,31.9,18.7,0000.0,0013.26,0005.38,0004.50
2022-09-01 08:44:00,,0829.9,5.00,0.00,30.1,28.7,00.0,38.9,31.9,18.6,0000.0,0012.71,0005.37,0004.51
2022-09-01 08:45:00,,0829.9,4.98,0.00,30.1,28.8,00.0,38.9,31.9,18.5,0000.0,0011.91,0005.33,0004.50
2022-09-01 08:46:00,,0829.9,5.01,0.00,30.1,28.8,00.0,38.9,31.9,18.5,0000.0,0011.67,0005.28,0004.49
2022-09-01 08:47:00,,0829.9,5.01,0.00,30.1,28.9,00.0,38.9,32.0,18.5,0000.0,0011.61,0005.29,0004.50
2022-09-01 08:48:00,,0829.8,5.01,0.00,30.2,28.9,00.0,39.0,32.0,18.6,0000.0,0011.43,0005.38,0004.51
2022-09-01 08:49:00,,0829.8,4.98,0.00,30.2,29.0,00.0,39.0,32.0,18.6,0000.0,0011.81,0005.40,0004.51
2022-09-01 08:50:00,,0829.8,5.01,0.00,30.2,29.0,00.0,39.0,32.0,18.4,0000.0,0011.96,0005.41,0004.51
2022-09-01 08:51:00,,0829.8,5.01,0.00,30.2,29.0,00.0,39.0,32.0,18.4,0000.0,0012.17,0005.42,0004.50
2022-09-01 08:52:00,,0829.7,5.00,0.00,30.2,29.0,00.0,39.0,32.0,18.3,0000.0,0012.70,0005.44,0004.50
2022-09-01 08:53:00,,0829.7,5.01,0.00,30.2,29.1,00.0,39.0,32.0,18.3,0000.0,0012.67,0005.41,0004.50
2022-09-01 08:54:00,,0829.6,5.00,0.00,30.2,29.1,00.0,39.0,32.1,18.3,0000.0,0012.37,0005.40,0004.49
2022-09-01 08:55:00,,0829.6,5.01,0.00,30.3,29.1,00.0,39.0,32.1,18.3,0000.0,0012.06,0005.36,0004.48
2022-09-01 08:56:00,,0829.7,5.01,0.00,30.3,29.1,00.0,39.0,32.1,18.3,0000.0,0012.20,0005.41,0004.48
2022-09-01 08:57:00,,0829.7,4.98,0.00,30.3,29.2,00.0,39.1,32.1,18.3,0000.0,0012.20,0005.41,0004.48
2022-09-01 08:58:00,,0829.8,5.01,0.00,30.3,29.2,00.0,39.1,32.1,18.3,0000.0,0011.79,0005.42,0004.48
2022-09-01 08:59:00,,0829.9,5.01,0.00,30.3,29.2,00.0,39.1,32.1,18.3,0000.0,0011.37,0005.38,0004.48
